This is the latest recevied weather packets stored in our database for station/object N9PBY-2. If no packets are shown the sender has not sent any weather packets the latest 10 day(s).
| Time | Temp. | Humidity | Pressure | Rain* | Wind** | Luminosity | Snow |
|---|---|---|---|---|---|---|---|
| 1777923606 | 25.56° C | 21% | 995.9 hPa | 0 mm | - | - | - |
| 1777923006 | 26.11° C | 20% | 995.9 hPa | 0 mm | - | - | - |
| 1777922407 | 26.11° C | 18% | 996.1 hPa | 0 mm | - | - | - |
| 1777921806 | 26.67° C | 19% | 996.1 hPa | 0 mm | - | - | - |
| 1777921206 | 26.67° C | 20% | 996 hPa | 0 mm | - | - | - |
| 1777920607 | 26.11° C | 19% | 995.9 hPa | 0 mm | - | - | - |
| 1777920006 | 26.11° C | 19% | 996.2 hPa | 0 mm | - | - | - |
| 1777919407 | 25.56° C | 19% | 996.4 hPa | 0 mm | - | - | - |
| 1777918806 | 26.11° C | 20% | 996.4 hPa | 0 mm | - | - | - |
| 1777918207 | 25.56° C | 18% | 996.4 hPa | 0 mm | - | - | - |
| 1777917607 | 25.56° C | 20% | 996.6 hPa | 0 mm | - | - | - |
| 1777917006 | 25.56° C | 19% | 996.4 hPa | 0 mm | - | - | - |
| 1777916407 | 25° C | 21% | 996.6 hPa | 0 mm | - | - | - |
| 1777915806 | 25° C | 19% | 996.7 hPa | 0 mm | - | - | - |
| 1777915207 | 25° C | 20% | 996.9 hPa | 0 mm | - | - | - |
| 1777914606 | 24.44° C | 20% | 997 hPa | 0 mm | - | - | - |
| 1777914006 | 24.44° C | 22% | 997.1 hPa | 0 mm | - | - | - |
| 1777913406 | 24.44° C | 20% | 997.2 hPa | 0 mm | - | - | - |
| 1777912807 | 23.89° C | 19% | 997.2 hPa | 0 mm | - | - | - |
| 1777912206 | 23.89° C | 21% | 997.5 hPa | 0 mm | - | - | - |
| 1777911606 | 23.89° C | 23% | 997.5 hPa | 0 mm | - | - | - |
| 1777911006 | 23.89° C | 23% | 997.8 hPa | 0 mm | - | - | - |
| 1777910407 | 23.33° C | 21% | 997.9 hPa | 0 mm | - | - | - |
| 1777909806 | 23.33° C | 23% | 998 hPa | 0 mm | - | - | - |
| 1777909207 | 22.78° C | 23% | 998.2 hPa | 0 mm | - | - | - |
* Rain latest hour (hover to see other rain measurements)
** Current wind speed in m/s (hover to see current wind gust speed)